Overview Statistics Trail Chart Weather Telemetry Raw packets
 

This is the latest recevied weather packets stored in our database for station/object KB4RFE. If no packets are shown the sender has not sent any weather packets the latest 10 day(s).

<< 81 82 83 84 85 86 87 >>
Time Temp. Humidity Pressure Rain* Wind** Luminosity Snow
1788034514 27.78° C 84% 1022.7 hPa 0 mm - 117 W/m² -
1788034210 27.78° C 84% 1022.9 hPa 0 mm - 110 W/m² -
1788033909 27.78° C 85% 1022.9 hPa 0 mm - 150 W/m² -
1788033610 28.33° C 83% 1023 hPa 0 mm - 161 W/m² -
1788033309 28.33° C 83% 1023.1 hPa 0 mm - 121 W/m² -
1788033005 28.33° C 83% 1023.2 hPa 0 mm - 185 W/m² -
1788032704 28.89° C 82% 1023.2 hPa 0 mm - 215 W/m² -
1788032399 28.89° C 83% 1023 hPa 0 mm - 489 W/m² -
1788032095 28.33° C 83% 1023 hPa 0 mm - 377 W/m² -
1788031790 28.33° C 84% 1022.9 hPa 0 mm - 502 W/m² -
1788031485 28.33° C 83% 1023 hPa 0 mm - 321 W/m² -
1788031185 28.33° C 83% 1023.1 hPa 0 mm - 237 W/m² -
1788030885 28.33° C 82% 1023 hPa 0 mm - 156 W/m² -
1788030584 28.89° C 80% 1023.1 hPa 0 mm - 134 W/m² -
1788030279 28.89° C 79% 1023.2 hPa 0 mm - 183 W/m² -
1788029975 28.89° C 79% 1023.1 hPa 0 mm - 197 W/m² -
1788029670 28.89° C 80% 1023 hPa 0 mm - 228 W/m² -
1788029365 28.89° C 77% 1023.1 hPa 0 mm - 233 W/m² -
1788029063 29.44° C 77% 1023.1 hPa 0 mm - 244 W/m² -
1788028763 29.44° C 78% 1023.1 hPa 0 mm - 273 W/m² -
1788028458 29.44° C 78% 1023.2 hPa 0 mm - 342 W/m² -
1788028154 29.44° C 79% 1023.2 hPa 0 mm - 463 W/m² -
1788027849 29.44° C 75% 1023 hPa 0 mm - 551 W/m² -
1788027549 29.44° C 76% 1023.3 hPa 0 mm - 465 W/m² -
1788027248 29.44° C 78% 1023.3 hPa 0 mm - 560 W/m² -

* Rain latest hour (hover to see other rain measurements)
** Current wind speed in m/s (hover to see current wind gust speed)